2023/10/20 00:00:00, 0.2,13.6
2023/10/20 00:10:00, 0.2,13.3
2023/10/20 00:20:00, 0.2,12.9
2023/10/20 00:30:00, 0.2,13.2
2023/10/20 00:40:00, 0.2,12.8
2023/10/20 00:50:00, 0.3,12.5
2023/10/20 01:00:00, 0.3,12.6
2023/10/20 01:10:00, 0.3,12.6
2023/10/20 01:20:00, 0.3,12.5
2023/10/20 01:30:00, 0.3,12.4
2023/10/20 01:40:00, 0.3,12.5
2023/10/20 01:50:00, 0.4,12.7
2023/10/20 02:00:00, 0.4,12.8
2023/10/20 02:10:00, 0.3,12.9
2023/10/20 02:20:00, 0.3,12.9
2023/10/20 02:30:00, 0.3,13.1
2023/10/20 02:40:00, 0.3,13.2
2023/10/20 02:50:00, 0.3,13.0
2023/10/20 03:00:00, 0.4,13.3
2023/10/20 03:10:00, 0.4,12.9
2023/10/20 03:20:00, 0.4,13.1
2023/10/20 03:30:00, 0.4,13.1
2023/10/20 03:40:00, 0.4,13.4
2023/10/20 03:50:00, 0.4,13.7
2023/10/20 04:00:00, 0.4,13.8
2023/10/20 04:10:00, 0.5,14.2
2023/10/20 04:20:00, 0.4,14.9
2023/10/20 04:30:00, 0.3,15.3
2023/10/20 04:40:00, 0.3,15.2
2023/10/20 04:50:00, 0.3,15.4
2023/10/20 05:00:00, 0.3,15.6
2023/10/20 05:10:00, 0.2,15.7
2023/10/20 05:20:00, 0.2,15.9
2023/10/20 05:30:00, 0.2,15.7
2023/10/20 05:40:00, 0.2,16.2
2023/10/20 05:50:00, 0.2,16.4
2023/10/20 06:00:00, 0.2,16.2
2023/10/20 06:10:00, 0.2,16.1
2023/10/20 06:20:00, 0.2,15.6
2023/10/20 06:30:00, 0.2,16.4
2023/10/20 06:40:00, 0.2,16.5
2023/10/20 06:50:00, 0.2,16.2
2023/10/20 07:00:00, 0.2,16.4
2023/10/20 07:10:00, 0.2,16.3
2023/10/20 07:20:00, 0.1,17.1
2023/10/20 07:30:00, 0.1,17.9
2023/10/20 07:40:00, 0.1,17.4
2023/10/20 07:50:00, 0.1,17.2
2023/10/20 08:00:00, 0.1,16.9
2023/10/20 08:10:00, 0.2,17.0
2023/10/20 08:20:00, 0.1,17.1
2023/10/20 08:30:00, 0.2,17.0
2023/10/20 08:40:00, 0.1,17.3
2023/10/20 08:50:00, 0.1,17.2
2023/10/20 09:00:00, 0.2,16.9
2023/10/20 09:10:00, 0.2,16.9
2023/10/20 09:20:00, 0.1,16.9
2023/10/20 09:30:00, 0.2,17.2
2023/10/20 09:40:00, 0.2,17.5
2023/10/20 09:50:00, 0.2,17.1
2023/10/20 10:00:00, 0.3,16.9
2023/10/20 10:10:00, 0.2,17.6
2023/10/20 10:20:00, 0.2,17.4
2023/10/20 10:30:00, 0.6,16.8
2023/10/20 10:40:00, 0.6,16.5
2023/10/20 10:50:00, 0.6,16.5
2023/10/20 11:00:00, 0.7,16.2
2023/10/20 11:10:00,---,15.9
2023/10/20 11:20:00,33.4,15.6
2023/10/20 11:30:00,49.7,15.3
2023/10/20 11:40:00,82.0,15.0
2023/10/20 11:50:00,49.6,15.3
2023/10/20 12:00:00,49.7,15.0
2023/10/20 12:10:00,---,15.1
2023/10/20 12:20:00,49.9,15.1
2023/10/20 12:30:00,49.9,15.2
2023/10/20 12:40:00,---,15.3
2023/10/20 12:50:00,---,15.2
2023/10/20 13:00:00,84.3,15.0
2023/10/20 13:10:00, 0.0,15.3
2023/10/20 13:20:00, 0.0,15.2
2023/10/20 13:30:00,---,15.0
2023/10/20 13:40:00,84.3,15.4
2023/10/20 13:50:00,---,15.5
2023/10/20 14:00:00, 0.0,15.1
2023/10/20 14:10:00,83.2,15.0
2023/10/20 14:20:00,---,15.1
2023/10/20 14:30:00, 1.0,14.5
2023/10/20 14:40:00, 0.8,14.5
2023/10/20 14:50:00,84.8,14.4
2023/10/20 15:00:00,---,14.5
2023/10/20 15:10:00,85.1,14.3
2023/10/20 15:20:00,83.7,13.9
2023/10/20 15:30:00,82.2,13.7
2023/10/20 15:40:00,82.0,13.9
2023/10/20 15:50:00,28.1,14.4
2023/10/20 16:00:00, 0.9,14.4
2023/10/20 16:10:00, 0.9,14.0
2023/10/20 16:20:00, 0.9,13.9
2023/10/20 16:30:00, 1.0,13.6
2023/10/20 16:40:00, 0.6,13.1
2023/10/20 16:50:00, 0.7,12.7
2023/10/20 17:00:00, 0.6,12.5
2023/10/20 17:10:00, 0.7,12.3
2023/10/20 17:20:00, 0.6,11.9
2023/10/20 17:30:00, 0.6,11.7
2023/10/20 17:40:00, 0.6,11.4
2023/10/20 17:50:00, 0.9,11.6
2023/10/20 18:00:00, 1.2,11.6
2023/10/20 18:10:00, 1.2,11.7
2023/10/20 18:20:00,---,11.9
2023/10/20 18:30:00,84.1,11.9
2023/10/20 18:40:00,84.3,12.1
2023/10/20 18:50:00,83.7,12.0
2023/10/20 19:00:00,85.5,11.9
2023/10/20 19:10:00,---,12.1
2023/10/20 19:20:00,86.2,12.0
2023/10/20 19:30:00,---,12.0
2023/10/20 19:40:00,---,12.1
2023/10/20 19:50:00,---,11.9
2023/10/20 20:00:00, 0.0,11.9
2023/10/20 20:10:00,84.2,11.4
2023/10/20 20:20:00,84.3,11.2
2023/10/20 20:30:00,84.5,11.1
2023/10/20 20:40:00,85.1,11.4
2023/10/20 20:50:00,---,11.2
2023/10/20 21:00:00,85.2,10.9
2023/10/20 21:10:00,85.9,11.1
2023/10/20 21:20:00,85.4,11.3
2023/10/20 21:30:00,85.5,11.3
2023/10/20 21:40:00,85.6,11.2
2023/10/20 21:50:00,85.6,11.3
2023/10/20 22:00:00,85.3,11.2
2023/10/20 22:10:00,84.7,11.3
2023/10/20 22:20:00,85.3,11.0
2023/10/20 22:30:00,83.8,10.7
2023/10/20 22:40:00,83.4,10.7
2023/10/20 22:50:00, 0.0,10.7
2023/10/20 23:00:00,85.5,10.6
2023/10/20 23:10:00,84.4,10.5
2023/10/20 23:20:00,83.8,10.5
2023/10/20 23:30:00,83.6,10.1
2023/10/20 23:40:00,83.9,10.1
2023/10/20 23:50:00,84.9,10.2
